Home   Weather   Sancti Spíritus   Past weeks
Flag for Cuba

Past Weather in Sancti Spíritus, Cuba — Yesterday and Last 2 Weeks

Now
64 °F

Passing clouds.


Feels Like: 64 °F
Forecast: 85 / 59 °F
Wind: 3 mph from Northeast

Location: Santa Bárbara

Current Time: Mar 22, 2019 at 9:48:03 pm

Latest Report: Mar 22, 2019 at 8:50 pm


Visibility: 6 mi

Pressure: 30.09 "Hg

Humidity: 64%

Dew Point: 52 °F

Location of Sancti SpíritusLocation

Past Weather in Sancti Spíritus — Graph

°F

Sancti Spíritus Temperature Yesterday

Maximum temperature yesterday: 84 °F (at 1:52 pm)
Minimum temperature yesterday: 63 °F (at 11:51 pm)
Average temperature yesterday: 73 °F

High & Low Weather Summary for the Past Weeks

 TemperatureHumidityPressure
High88 °F (Mar 18, 3:50 pm)94% (Mar 8, 12:54 am)30.18 "Hg (Mar 8, 12:54 am)
Low55 °F (Mar 8, 6:52 am)35% (Mar 19, 3:51 pm)29.92 "Hg (Mar 18, 3:50 pm)
Average73 °F74%30.05 "Hg
* Reported Mar 7 6:54 pm — Mar 22 7:50 pm, Sancti Spíritus. Weather by CustomWeather, © 2019

Note: Actual official high and low records may vary slightly from our data, if they occured in-between our weather recording intervals... More about our weather records

Advertising

Sancti Spíritus Weather History for the Previous 24 Hours

Scroll right to see more
 ConditionsComfort  
Time TempWeatherWind HumidityBarometerVisibility
7:50 pm
Fri, Mar 22
68 °FPassing clouds.6 mph56%30.07 "Hg6 mi
6:50 pm72 °FPassing clouds.12 mph47%30.07 "Hg6 mi
5:50 pm73 °FPassing clouds.10 mph47%30.04 "Hg6 mi
4:50 pm75 °FPassing clouds.12 mph44%30.04 "Hg6 mi
3:50 pm77 °FScattered clouds.12 mph44%30.04 "Hg6 mi
2:50 pm75 °FPartly sunny.10 mph47%30.04 "Hg6 mi
1:50 pm77 °FScattered clouds.8 mph44%30.07 "Hg6 mi
12:50 pm75 °FScattered clouds.10 mph44%30.09 "Hg6 mi
11:51 am73 °FScattered clouds.12 mph47%30.09 "Hg6 mi
10:50 am73 °FScattered clouds.13 mph53%30.09 "Hg6 mi
9:51 am72 °FPassing clouds.13 mph57%30.09 "Hg6 mi
8:50 am64 °FPassing clouds.2 mph78%30.07 "Hg6 mi
7:51 am57 °FPassing clouds.3 mph88%30.07 "Hg6 mi
6:54 am55 °FPassing clouds.2 mph94%30.04 "Hg5 mi
5:51 am55 °FPassing clouds.3 mph94%30.01 "Hg6 mi
4:52 am57 °FClear.3 mph94%30.01 "Hg6 mi
3:53 am59 °FClear.5 mph94%30.01 "Hg6 mi
2:53 am59 °FClear.5 mph94%30.01 "Hg6 mi
1:50 am61 °FClear.5 mph88%30.01 "Hg6 mi
12:50 am61 °FClear.1 mph88%30.04 "Hg6 mi
11:51 pm
Thu, Mar 21
63 °FClear.2 mph83%30.04 "Hg6 mi
10:50 pm64 °FPassing clouds.1 mph83%30.04 "Hg6 mi
9:51 pm68 °FPassing clouds.1 mph73%30.01 "Hg6 mi
Weather by CustomWeather, © 2019

See weather overview